TimePST,TemperatureF,Dew PointF,Humidity,Sea Level PressureIn,VisibilityMPH,Wind Direction,Wind SpeedMPH,Gust SpeedMPH,PrecipitationIn,Events,Conditions,WindDirDegrees,DateUTC
12:56 AM,37.9,21.0,51,30.15,10.0,Calm,Calm,-,N/A,,Clear,0,2012-12-11 08:56:00
1:56 AM,39.9,20.1,45,30.14,10.0,South,8.1,-,N/A,,Clear,180,2012-12-11 09:56:00
2:56 AM,36.9,20.1,51,30.14,10.0,South,8.1,-,N/A,,Clear,190,2012-12-11 10:56:00
3:56 AM,39.9,19.0,43,30.15,10.0,Calm,Calm,-,N/A,,Clear,0,2012-12-11 11:56:00
4:56 AM,36.0,21.0,55,30.15,10.0,South,8.1,-,N/A,,Clear,180,2012-12-11 12:56:00
5:56 AM,34.9,22.1,60,30.16,10.0,Calm,Calm,-,N/A,,Clear,0,2012-12-11 13:56:00
6:56 AM,34.9,21.0,57,30.17,10.0,SSW,6.9,-,N/A,,Clear,200,2012-12-11 14:56:00
7:56 AM,39.9,22.1,49,30.17,10.0,Calm,Calm,-,N/A,,Clear,0,2012-12-11 15:56:00
8:56 AM,45.0,22.1,40,30.16,10.0,Calm,Calm,-,N/A,,Clear,0,2012-12-11 16:56:00
9:56 AM,48.9,23.0,36,30.16,10.0,Calm,Calm,-,N/A,,Clear,0,2012-12-11 17:56:00
10:56 AM,54.9,23.0,29,30.13,10.0,Calm,Calm,-,N/A,,Clear,0,2012-12-11 18:56:00
11:56 AM,56.8,22.1,26,30.10,10.0,NE,3.5,-,N/A,,Clear,50,2012-12-11 19:56:00
12:56 PM,57.9,21.0,24,30.06,10.0,NNE,9.2,-,N/A,,Clear,30,2012-12-11 20:56:00
1:56 PM,59.0,22.1,24,30.01,10.0,NNE,3.5,-,N/A,,Clear,30,2012-12-11 21:56:00
2:56 PM,57.9,23.0,26,29.99,10.0,NNE,5.8,-,N/A,,Clear,30,2012-12-11 22:56:00
3:56 PM,55.4,21.2,26,29.97,10.0,Calm,Calm,-,N/A,,Clear,0,2012-12-11 23:56:00
4:56 PM,50.9,23.0,34,29.99,10.0,Calm,Calm,-,N/A,,Clear,0,2012-12-12 00:56:00
5:56 PM,46.9,24.1,41,30.00,10.0,Calm,Calm,-,N/A,,Clear,0,2012-12-12 01:56:00
6:56 PM,44.6,23.0,43,29.96,10.0,Calm,Calm,-,N/A,,Clear,0,2012-12-12 02:56:00
7:56 PM,41.9,23.0,47,29.99,10.0,Calm,Calm,-,N/A,,Clear,0,2012-12-12 03:56:00
8:56 PM,39.9,23.0,51,29.98,10.0,Calm,Calm,-,N/A,,Clear,0,2012-12-12 04:56:00
9:56 PM,38.8,23.0,53,29.96,10.0,Calm,Calm,-,N/A,,Clear,0,2012-12-12 05:56:00
10:56 PM,38.8,23.0,53,29.95,10.0,Calm,Calm,-,N/A,,Clear,0,2012-12-12 06:56:00
11:56 PM,37.9,21.0,51,29.93,10.0,Calm,Calm,-,N/A,,Clear,0,2012-12-12 07:56:00